College Station, TX

3:35 PM CDT on September 21, 2017 (GMT -0500)
Easterwood

Weather History for KCLL - December, 2014

Change the Weather History Date:

Saturday, December 27, 2014

  Actual Average Record
Temperature  
Mean Temperature 54 °F 51 °F  
Max Temperature 67 °F 61 °F 79 °F (1971)
Min Temperature 41 °F 41 °F 20 °F (1924)
Degree Days  
Heating Degree Days 11 15  
Month to date heating degree days 218 352  
Since 1 July heating degree days 513 577  
Cooling Degree Days 0 0  
Month to date cooling degree days 10 13  
Year to date cooling degree days 2943 3086  
Growing Degree Days 4 (Base 50)    
Moisture  
Dew Point 54 °F    
Average Humidity 88    
Maximum Humidity 100    
Minimum Humidity 76    
Precipitation  
Precipitation 0.52 in 0.11 in 2.77 in (2015)
Month to date precipitation 2.31 2.83  
Year to date precipitation 39.35 39.66  
Sea Level Pressure  
Sea Level Pressure 30.06 in    
Wind  
Wind Speed 13 mph (North)    
Max Wind Speed 26 mph    
Max Gust Speed 33 mph    
Visibility 7 miles    
Events Fog , Rain , Thunderstorm    
T = Trace of Precipitation, MM = Missing Value Source: NWS Daily Summary

Daily Weather History Graph

Daily Weather History Graph

Search for Another Location

Airport or City:

Trip Planner

Search our weather history database for the weather conditions in past years. The results will help you decide how hot, cold, wet, or windy it might be!

Date:

Astronomy

Dec. 27, 2014 Rise Set
Actual Time 7:21 AM CST 5:32 PM CST
Civil Twilight 6:54 AM CST 5:58 PM CST
Nautical Twilight 6:24 AM CST 6:28 PM CST
Astronomical Twilight 5:55 AM CST 6:58 PM CST
Moon 11:33 AM CST (12/27) 11:57 PM CST (12/27)
Length of Visible Light 11h 03m
Length of Day
10h 10m
Waxing Crescent, 38% of the Moon is Illuminated
Dec 27
Waxing Crescent
Dec 28
First Quarter
Jan 4
Full
Jan 13
Last Quarter
Jan 20
New

Hourly Weather History & Observations

Time (CST) Temp. Windchill Dew Point Humidity Pressure Visibility Wind Dir Wind Speed Gust Speed Precip Events Conditions
12:22 AM 64.9 °F - 64.0 °F 97% 29.97 in 9.0 mi SSE 8.1 mph - N/A   Overcast
12:37 AM 66.0 °F - 64.0 °F 93% 29.97 in 8.0 mi SSE 8.1 mph - N/A   Overcast
12:53 AM 66.0 °F - 64.0 °F 93% 29.96 in 8.0 mi SSE 5.8 mph - N/A   Overcast
1:09 AM 66.0 °F - 64.0 °F 93% 29.97 in 8.0 mi SE 5.8 mph - N/A   Overcast
1:53 AM 66.0 °F - 64.0 °F 93% 29.96 in 7.0 mi SSE 5.8 mph - N/A   Overcast
2:16 AM 66.0 °F - 64.9 °F 96% 29.97 in 7.0 mi SE 8.1 mph - N/A   Overcast
2:53 AM 66.0 °F - 64.9 °F 96% 29.95 in 6.0 mi SE 6.9 mph - N/A   Overcast
3:49 AM 66.2 °F - 64.4 °F 94% 29.96 in 6.0 mi SE 8.1 mph - N/A   Overcast
3:53 AM 66.0 °F - 64.9 °F 96% 29.95 in 6.0 mi SE 9.2 mph - N/A   Overcast
4:00 AM 66.0 °F - 64.9 °F 96% 29.96 in 6.0 mi SE 8.1 mph - N/A   Overcast
4:08 AM 66.0 °F - 64.9 °F 96% 29.96 in 6.0 mi SE 9.2 mph - N/A   Overcast
4:37 AM 66.0 °F - 64.9 °F 96% 29.96 in 6.0 mi SSE 6.9 mph - N/A   Overcast
4:53 AM 66.0 °F - 64.9 °F 96% 29.94 in 6.0 mi SE 5.8 mph - N/A   Overcast
5:04 AM 66.0 °F - 64.9 °F 96% 29.95 in 6.0 mi SSE 6.9 mph - N/A   Overcast
5:22 AM 66.0 °F - 64.9 °F 96% 29.96 in 6.0 mi SSE 5.8 mph - N/A   Overcast
5:36 AM 66.0 °F - 64.9 °F 96% 29.97 in 6.0 mi SSE 4.6 mph - N/A   Overcast
5:53 AM 66.0 °F - 64.9 °F 96% 29.97 in 6.0 mi SSE 3.5 mph - N/A   Overcast
6:25 AM 66.9 °F - 66.0 °F 97% 29.99 in 6.0 mi Calm Calm - N/A   Overcast
6:28 AM 66.9 °F - 66.0 °F 97% 30.00 in 5.0 mi South 4.6 mph - 0.01 in Rain Light Rain
6:37 AM 66.0 °F - 64.9 °F 96% 30.00 in 4.0 mi SSE 5.8 mph - 0.02 in Rain Light Rain
6:46 AM 66.9 °F - 66.0 °F 97% 30.00 in 4.0 mi SSE 3.5 mph - 0.04 in Rain Light Rain
6:50 AM 66.2 °F - 66.2 °F 100% 30.00 in 4.0 mi SW 3.5 mph - 0.04 in Rain Light Rain
6:53 AM 66.9 °F - 66.0 °F 97% 30.00 in 5.0 mi Calm Calm - 0.04 in Rain Light Rain
7:12 AM 66.9 °F - 66.0 °F 97% 30.01 in 5.0 mi Variable 3.5 mph - 0.01 in Rain Light Rain
7:42 AM 66.0 °F - 64.9 °F 96% 30.02 in 1.5 mi Calm Calm - 0.01 in   Overcast
7:51 AM 66.2 °F - 64.4 °F 94% 30.03 in 0.8 mi Calm Calm - 0.01 in   Overcast
7:53 AM 66.0 °F - 64.9 °F 96% 30.02 in 0.8 mi Calm Calm - 0.01 in   Overcast
8:00 AM 66.0 °F - 66.0 °F 100% 30.03 in 1.8 mi Calm Calm - 0.00 in Rain Light Rain
8:22 AM 57.9 °F - 57.0 °F 97% 30.04 in 1.5 mi WNW 18.4 mph - 0.01 in Rain Light Rain
8:26 AM 55.0 °F - 54.0 °F 96% 30.04 in 3.0 mi NW 17.3 mph - 0.01 in Rain Light Rain
8:39 AM 54.0 °F - 53.1 °F 97% 30.05 in 5.0 mi NNW 17.3 mph 25.3 mph 0.01 in Rain Light Rain
8:53 AM 52.0 °F - 51.1 °F 97% 30.05 in 5.0 mi NNW 17.3 mph 25.3 mph 0.03 in Rain , Thunderstorm Light Thunderstorms and Rain
9:09 AM 51.1 °F - 48.9 °F 92% 30.08 in 2.0 mi NW 13.8 mph - 0.10 in Rain , Thunderstorm Rain
9:12 AM 50.0 °F - 48.9 °F 96% 30.07 in 0.8 mi NW 25.3 mph 33.4 mph 0.29 in Rain Heavy Rain
9:19 AM 48.9 °F - 48.0 °F 97% 30.09 in 0.5 mi NNW 19.6 mph 33.4 mph 0.40 in Fog , Rain , Thunderstorm Heavy Rain
9:25 AM 48.9 °F - 48.0 °F 97% 30.10 in 2.0 mi NNW 17.3 mph 25.3 mph 0.40 in Rain , Thunderstorm Light Rain
9:28 AM 48.9 °F - 48.0 °F 97% 30.09 in 3.0 mi NNW 15.0 mph - 0.40 in Rain Light Rain
9:53 AM 48.9 °F - 48.0 °F 97% 30.10 in 6.0 mi NNW 16.1 mph - 0.42 in Rain Light Rain
10:53 AM 48.0 °F - 45.0 °F 89% 30.10 in 10.0 mi North 18.4 mph - 0.01 in Rain Light Rain
11:53 AM 46.9 °F - 45.0 °F 93% 30.11 in 10.0 mi North 15.0 mph 24.2 mph 0.01 in   Overcast
12:10 PM 46.9 °F - 44.1 °F 90% 30.10 in 10.0 mi North 20.7 mph 28.8 mph 0.00 in   Overcast
12:53 PM 46.4 °F 39.0 °F 44.6 °F 93% 30.08 in 10.0 mi North 19.6 mph 26.5 mph N/A   Overcast
1:02 PM 48.0 °F - 44.1 °F 86% 30.08 in 10.0 mi NNW 16.1 mph - N/A   Overcast
1:53 PM 46.9 °F - 43.0 °F 86% 30.09 in 10.0 mi North 19.6 mph 27.6 mph 0.00 in   Overcast
2:53 PM 46.0 °F 39.6 °F 41.0 °F 83% 30.11 in 10.0 mi NNW 15.0 mph 24.2 mph 0.00 in   Overcast
3:53 PM 46.0 °F 38.5 °F 39.9 °F 79% 30.13 in 10.0 mi North 19.6 mph - N/A   Overcast
4:18 PM 46.0 °F 38.8 °F 39.9 °F 79% 30.14 in 10.0 mi NNW 18.4 mph 25.3 mph N/A   Overcast
4:53 PM 46.0 °F 38.8 °F 39.9 °F 79% 30.14 in 10.0 mi NNW 18.4 mph - N/A   Overcast
5:53 PM 45.0 °F 37.4 °F 39.0 °F 80% 30.17 in 10.0 mi North 18.4 mph 21.9 mph N/A   Overcast
6:53 PM 45.0 °F 38.9 °F 39.0 °F 80% 30.19 in 10.0 mi NNW 12.7 mph - N/A   Overcast
7:53 PM 44.1 °F 37.4 °F 37.9 °F 79% 30.20 in 10.0 mi NNW 13.8 mph - N/A   Overcast
8:08 PM 44.1 °F 37.4 °F 37.9 °F 79% 30.22 in 10.0 mi NNW 13.8 mph - N/A   Overcast
8:44 PM 43.0 °F 36.8 °F 37.9 °F 82% 30.24 in 10.0 mi NNW 11.5 mph - N/A   Overcast
8:51 PM 42.8 °F 35.1 °F 37.4 °F 81% 30.23 in 10.0 mi NNW 16.1 mph 20.7 mph N/A   Overcast
8:53 PM 43.0 °F 34.8 °F 37.0 °F 80% 30.23 in 10.0 mi NNW 18.4 mph 24.2 mph N/A   Overcast
9:04 PM 43.0 °F 34.8 °F 37.0 °F 80% 30.22 in 10.0 mi North 18.4 mph - N/A   Overcast
9:53 PM 42.1 °F 35.2 °F 36.0 °F 79% 30.25 in 10.0 mi NNW 12.7 mph - N/A   Overcast
10:53 PM 42.1 °F 34.5 °F 36.0 °F 79% 30.24 in 10.0 mi NNW 15.0 mph - N/A   Overcast
11:53 PM 41.0 °F 32.2 °F 35.6 °F 81% 30.23 in 10.0 mi NNW 18.4 mph - N/A   Mostly Cloudy